GFSSW_850_temp_057.txt.gz
Temp
13 14 14 14 15 15 15 15 15 16 16 17 17 18 18 18 18 19 19 19 19 20 20 20 20 20 20 20 20 19 12 13 16 15 18 19 18 18 19 18 17 18 18 18 16
13 13 14 14 14 15 15 15 15 16 16 16 17 17 18 18 18 19 19 19 19 20 20 20 20 20 20 19 19 16 12 15 16 16 17 18 19 19 18 17 16 17 18 18 16
14 13 14 14 14 15 15 15 15 16 16 16 17 17 17 18 18 18 19 19 19 19 19 19 19 19 19 19 18 16 14 15 18 18 18 18 18 19 17 15 18 19 19 17 16
14 14 14 14 14 14 15 15 15 16 16 16 17 17 17 18 17 18 18 19 19 19 19 19 19 19 17 17 18 18 17 18 18 18 18 18 18 18 18 19 20 20 20 18 17
13 13 14 14 14 14 14 14 15 15 16 16 16 17 17 18 18 18 18 18 18 18 18 19 19 19 16 17 18 17 17 18 18 18 18 18 18 17 18 19 19 19 18 18 17
12 13 13 13 14 14 14 14 14 15 15 16 16 17 17 16 18 17 18 18 18 18 18 18 19 19 18 17 17 17 17 17 17 17 17 16 16 17 18 19 19 18 18 17 17
12 12 12 13 13 13 14 14 14 14 15 15 16 16 16 17 17 17 17 17 18 18 18 18 18 18 18 16 17 16 16 14 15 16 16 16 15 13 18 17 17 17 17 16 16
11 11 12 12 12 13 13 13 14 14 14 15 15 15 16 17 17 17 17 17 17 17 17 18 18 18 17 16 15 15 13 14 15 14 16 16 13 15 17 16 15 16 16 16 16
10 10 11 11 12 12 13 13 13 13 14 14 14 15 16 16 16 16 16 16 16 17 17 17 17 16 16 12 12 10 13 12 13 13 14 13 14 15 15 14 15 15 15 15 15
9 10 10 10 10 12 12 12 13 13 13 13 14 14 15 15 16 16 15 15 16 16 16 16 16 10 9 11 12 12 12 12 13 14 13 13 11 12 14 13 14 14 15 15 15
10 10 10 9 9 10 11 12 12 13 12 15 15 15 15 15 15 14 14 14 15 15 13 13 11 11 11 11 13 13 12 13 13 14 14 12 11 13 14 13 12 14 15 15 16
9 9 10 10 9 9 10 11 11 10 11 13 14 13 14 14 14 14 14 14 14 12 11 11 10 12 12 11 12 13 13 11 12 12 12 11 11 11 11 12 14 16 15 16 16
8 8 9 9 9 9 10 10 11 10 10 12 14 14 14 14 14 14 14 13 12 10 10 10 13 11 12 11 12 11 11 11 12 13 11 11 10 11 12 12 14 15 17 17 17
8 8 8 8 8 8 8 9 9 10 8 9 10 13 14 14 12 15 14 15 11 11 9 10 12 12 11 11 11 11 11 12 12 13 10 12 12 13 12 11 10 14 16 18 18
7 7 8 8 8 8 9 9 8 9 10 11 10 11 12 13 13 11 13 14 10 10 11 12 10 11 11 11 11 11 11 11 12 10 11 10 9 13 11 11 12 14 17 19 19
7 7 7 7 7 8 8 8 8 7 7 11 10 9 9 11 10 9 11 12 12 11 11 11 12 11 12 11 11 10 11 9 7 8 8 12 10 14 11 13 13 14 17 17 18
5 6 6 6 7 7 7 7 6 7 9 10 9 9 10 8 9 9 8 9 11 10 10 11 11 11 12 12 11 12 11 10 9 7 10 7 8 15 13 12 12 14 19 19 16
4 5 5 6 7 7 7 6 6 7 7 9 8 8 9 9 9 8 7 9 9 11 9 11 11 10 10 14 11 10 11 9 9 8 9 8 8 10 10 13 15 16 16 15 14
4 4 5 6 6 7 6 7 8 6 8 8 9 9 8 8 9 8 7 7 9 10 12 10 10 10 10 11 13 9 10 12 11 -0 5 10 10 10 9 8 10 13 13 12 14
3 3 4 6 6 6 7 7 8 8 9 10 10 9 9 7 9 7 6 8 9 10 11 12 10 9 10 11 10 10 10 9 6 8 6 9 8 12 13 11 10 9 12 13 13
3 3 4 6 5 5 6 7 8 9 11 10 10 9 9 8 9 7 8 9 8 8 11 11 10 8 9 8 9 9 9 9 9 6 7 6 11 8 12 11 12 10 14 15 15
2 2 4 5 4 5 6 7 7 8 10 10 9 11 9 8 8 8 7 9 11 9 9 9 10 6 7 8 8 10 10 9 8 7 5 6 13 11 9 10 11 14 16 15 14
1 2 4 4 4 5 6 7 8 8 8 9 9 10 9 10 9 8 7 9 10 10 9 10 8 6 8 8 7 8 8 10 8 5 7 8 13 7 8 9 11 13 14 14 14
0 0 2 3 3 4 5 6 7 8 8 8 9 9 9 10 10 8 7 8 10 10 12 12 8 8 10 11 8 7 7 8 11 10 11 11 13 13 12 10 11 14 15 14 15
-1 0 2 2 2 3 3 6 6 6 7 7 7 7 9 9 10 9 7 8 8 9 9 9 6 8 10 9 9 7 7 8 10 11 11 13 12 14 13 10 13 17 16 13 14
-1 -0 1 1 2 2 3 3 4 5 7 7 7 7 7 7 8 9 10 10 10 7 8 7 6 7 8 8 8 8 7 8 9 11 11 12 12 13 14 13 12 15 15 13 14
-1 -0 1 2 1 1 3 3 5 5 4 5 6 6 6 6 6 6 7 7 8 9 6 6 6 7 8 9 8 7 8 10 9 10 11 10 12 11 12 10 12 14 13 14 15

GFSSW_850_temp_060.txt.gz
Temp
13 13 14 14 14 14 15 15 15 16 16 16 17 17 17 18 18 19 19 19 19 19 19 20 20 20 20 20 20 19 12 13 15 14 18 17 17 18 18 18 17 18 18 18 17
12 13 14 14 14 14 14 14 15 16 16 16 17 17 18 18 19 19 18 19 19 19 19 20 19 20 20 19 19 16 12 14 14 14 17 17 18 17 17 16 16 17 18 18 17
12 13 13 14 14 14 14 14 15 15 16 16 17 17 18 18 18 18 18 19 19 19 19 19 19 19 19 18 17 15 14 14 17 17 17 17 17 18 16 14 18 19 20 19 18
12 12 12 13 14 14 14 14 15 15 16 16 17 17 18 18 17 18 18 18 18 18 19 19 19 19 16 16 17 17 16 17 18 18 17 16 17 17 17 19 20 20 20 20 19
12 12 12 12 13 14 14 14 14 15 15 16 16 17 17 17 18 18 18 18 18 18 18 18 18 18 15 16 17 17 16 17 17 17 17 17 17 16 17 19 19 19 19 19 19
12 12 12 12 12 13 13 14 14 15 15 16 16 16 17 16 17 17 18 18 18 18 18 18 18 18 17 16 16 16 16 16 16 17 17 16 16 16 18 19 19 19 19 19 18
12 11 12 12 12 12 13 14 14 14 15 15 16 16 16 17 17 17 17 17 18 18 18 18 18 18 17 16 16 16 16 14 15 15 15 16 14 13 18 18 18 18 18 18 18
11 11 11 12 12 12 12 13 13 14 14 15 15 15 17 17 17 17 17 17 17 17 17 17 18 18 17 16 15 14 12 14 14 13 15 16 12 14 17 17 17 18 18 17 17
10 10 11 11 12 12 13 13 13 13 14 14 14 15 16 17 16 16 16 16 16 17 17 17 17 16 15 12 11 9 13 12 13 13 13 13 13 15 15 14 15 16 17 17 17
10 9 9 10 11 11 12 12 13 13 13 13 14 14 15 16 16 16 15 15 15 16 16 16 16 10 8 10 12 12 12 11 13 14 12 12 10 11 15 14 15 16 16 16 16
9 9 9 9 9 11 11 12 12 12 12 14 14 14 15 14 15 15 14 15 15 15 12 13 11 11 11 10 13 11 12 13 12 13 13 11 10 11 15 12 13 15 17 17 17
8 8 8 9 9 10 11 10 10 9 9 13 13 13 14 14 14 14 14 14 14 11 11 10 10 11 11 10 12 12 13 11 11 11 12 11 10 11 11 12 14 16 17 18 19
8 8 8 8 9 9 10 10 9 9 9 12 13 13 14 14 14 14 14 13 11 9 9 10 13 10 11 11 11 11 10 10 12 12 10 10 9 9 11 12 15 16 17 17 18
8 8 8 7 8 9 8 10 9 9 8 9 10 13 13 14 12 14 14 14 11 10 8 9 11 11 11 11 11 10 10 11 12 12 9 11 10 11 12 11 10 15 16 18 18
6 7 8 8 8 8 9 9 9 8 10 10 9 11 11 13 12 11 13 13 9 9 10 11 9 10 11 11 10 11 9 9 11 9 10 8 10 13 10 12 13 13 17 19 19
6 6 6 7 7 8 8 8 9 7 8 9 9 9 9 10 10 9 11 12 12 10 10 10 11 10 11 10 11 9 10 8 6 7 9 9 10 13 10 12 13 15 18 19 18
5 5 6 6 7 7 7 7 6 7 9 9 8 8 9 9 9 9 8 9 10 10 9 10 10 10 11 10 10 11 11 10 9 6 10 7 8 14 12 12 11 13 19 19 17
4 4 5 5 6 7 6 6 7 7 7 8 8 8 9 8 8 8 7 8 9 10 8 11 12 9 9 12 11 9 11 9 9 7 9 6 8 10 10 12 15 16 17 16 16
2 3 4 5 5 6 6 6 7 7 7 8 9 8 8 8 8 8 6 7 8 8 11 9 9 10 9 11 13 9 10 11 12 -1 5 11 10 11 9 9 9 13 13 14 15
2 2 3 5 5 5 6 6 8 7 8 9 9 9 7 7 8 7 6 7 8 9 11 11 10 8 9 11 10 10 9 9 6 8 5 9 9 11 13 12 10 10 12 15 16
1 2 4 5 5 4 5 6 7 9 9 9 9 9 9 8 8 6 8 9 7 8 10 10 10 8 9 8 8 9 9 9 8 6 6 6 13 8 12 12 12 11 15 14 16
1 1 4 4 3 5 5 6 8 7 8 9 9 10 9 8 8 7 7 9 10 9 9 8 9 7 7 8 7 9 9 8 8 7 4 5 13 10 9 9 10 13 14 16 17
1 2 3 3 3 4 5 5 6 7 7 7 9 9 9 9 9 9 7 9 10 9 8 9 8 4 7 7 7 7 8 10 7 5 7 8 13 7 9 11 12 12 15 15 16
0 -2 1 2 3 3 4 5 5 7 6 7 8 7 7 9 10 9 8 7 10 10 13 11 7 7 10 10 7 7 6 7 10 9 11 9 13 13 13 12 11 13 15 15 15
-1 -1 1 -1 1 1 2 3 4 5 7 7 7 8 8 8 8 9 8 7 7 8 8 9 6 7 8 9 8 7 7 8 9 11 10 13 12 14 13 10 13 17 15 15 16
-1 -1 0 1 2 1 2 3 3 3 5 6 6 7 7 7 8 8 9 8 9 6 9 7 6 6 6 7 7 8 7 8 8 10 11 12 12 14 14 15 12 14 16 15 15
-1 -1 -1 0 -0 -0 1 2 3 4 4 4 3 4 6 7 7 6 5 5 4 6 7 7 6 6 8 8 6 6 7 8 8 9 10 10 12 12 12 9 13 13 14 14 15

GFSSW_850_temp_063.txt.gz
Temp
13 12 13 13 14 14 14 14 15 15 16 16 17 17 18 18 18 18 18 19 19 19 19 19 19 19 20 20 20 19 14 14 16 14 17 16 16 17 17 17 17 17 18 18 17
12 13 13 13 13 14 14 14 15 15 16 16 16 17 18 18 18 18 18 18 18 19 19 19 19 19 19 19 18 16 13 15 14 14 16 16 17 17 17 16 16 18 18 18 17
12 12 12 13 13 13 14 14 15 15 16 16 16 17 17 18 18 18 18 18 18 19 19 19 19 19 19 18 17 14 15 14 16 16 17 16 16 17 16 14 18 20 20 19 18
12 12 12 13 13 13 14 14 15 15 16 16 16 17 17 17 17 18 18 18 18 18 19 19 19 19 16 16 16 17 15 16 17 17 16 15 17 16 16 20 20 20 20 20 19
11 12 12 12 12 13 13 14 14 15 15 16 16 17 17 17 17 17 18 18 18 18 18 19 19 18 15 16 16 16 16 16 16 17 17 16 16 16 16 19 19 19 20 20 19
12 12 12 12 12 13 13 13 14 14 15 15 16 16 17 16 17 17 17 17 17 18 18 18 18 18 17 15 15 16 15 15 16 16 16 15 15 16 18 19 19 18 19 20 20
11 11 12 12 12 13 13 13 13 13 14 15 15 16 16 17 17 17 17 17 17 17 18 18 18 18 17 15 15 15 16 14 15 15 15 15 15 13 18 18 19 18 19 19 19
9 10 11 12 12 13 13 13 13 13 14 14 15 15 17 17 17 17 17 17 17 17 17 17 18 17 16 15 14 13 11 14 14 13 15 15 13 14 16 16 17 18 19 18 19
9 9 10 10 11 11 12 13 13 14 14 14 14 14 16 16 16 16 16 16 16 16 17 17 17 15 15 11 11 9 13 12 13 12 13 13 13 14 15 15 16 17 18 18 18
9 9 9 10 9 10 10 12 13 13 13 14 14 14 15 15 16 16 15 15 16 16 16 16 16 10 8 11 12 12 12 11 12 13 12 12 11 11 16 14 16 17 17 17 18
9 9 8 9 10 9 10 11 12 12 12 14 13 13 14 14 15 15 15 15 15 15 12 12 11 11 11 10 12 11 13 13 12 12 13 11 10 12 15 13 14 16 18 18 19
8 8 8 9 9 10 9 10 10 10 10 13 13 13 13 13 13 13 14 14 14 11 11 10 10 11 10 10 12 11 12 11 10 11 11 11 11 12 11 14 16 16 18 19 19
8 8 8 8 8 9 9 9 9 9 9 11 12 13 14 14 13 14 13 14 11 9 9 10 12 10 11 10 10 10 10 10 12 11 9 9 9 9 11 12 14 16 18 18 19
7 8 8 8 7 8 8 9 9 10 8 9 10 12 13 13 12 14 13 14 10 10 7 9 11 10 10 10 10 11 9 10 11 11 10 10 10 10 11 12 10 15 17 19 19
6 7 7 8 8 8 8 9 8 10 8 9 9 10 10 12 12 10 12 13 9 9 9 11 8 9 10 10 10 11 8 9 10 9 9 9 9 11 10 11 12 14 17 19 20
6 7 7 7 7 7 8 8 8 7 8 9 9 9 9 10 9 9 11 12 11 10 10 10 10 10 10 9 10 7 8 7 6 7 8 9 11 16 11 12 13 14 18 20 18
5 5 6 6 7 7 7 7 7 8 8 8 8 8 8 8 9 9 8 9 9 10 9 10 10 10 10 9 9 10 10 10 9 6 10 7 9 16 12 11 12 14 20 20 18
3 4 5 6 6 7 7 6 6 7 7 7 7 7 8 7 8 7 7 8 8 9 8 10 11 9 9 11 10 8 10 9 9 8 9 6 8 11 10 12 13 15 16 16 15
2 3 4 5 5 5 6 7 6 6 7 8 8 8 8 8 7 7 6 6 8 7 11 9 9 9 8 10 12 9 9 12 11 -2 5 9 9 10 9 9 11 13 14 13 16
2 2 3 4 4 4 5 6 7 7 8 8 9 9 7 6 7 6 6 7 8 8 11 11 10 8 9 10 10 10 9 9 6 8 6 9 10 13 14 13 12 10 13 16 16
1 2 3 4 4 4 4 6 7 8 8 9 9 9 8 7 7 5 7 8 7 7 10 9 9 8 8 7 8 9 9 8 8 7 7 6 12 9 12 12 11 10 14 15 15
1 0 3 3 3 4 4 5 7 7 8 8 7 8 9 7 7 7 7 9 9 8 8 8 8 7 7 7 6 7 9 8 8 6 4 5 14 10 10 10 10 11 14 15 16
1 2 3 3 1 2 3 4 6 6 7 7 7 8 8 9 8 7 7 8 10 8 8 8 8 4 7 7 6 6 6 9 7 5 7 9 14 7 8 10 11 11 13 14 15
0 -2 1 1 2 2 2 3 3 6 5 6 7 7 6 6 8 7 7 8 9 10 11 11 7 8 10 9 7 6 6 7 10 6 11 8 13 13 12 12 11 14 15 15 16
-1 -1 1 -2 0 1 2 3 3 4 6 6 5 6 6 6 7 7 7 6 7 8 8 9 8 6 9 8 8 8 7 8 9 11 10 12 12 13 13 11 14 17 16 16 16
-1 -1 -1 -1 2 1 1 2 2 3 3 4 4 6 5 6 7 7 8 8 9 6 7 7 7 6 7 7 8 7 7 6 8 10 11 11 11 14 14 14 13 15 16 16 16
-1 -1 -1 0 -1 -1 1 1 2 2 3 4 3 2 2 4 4 4 4 4 4 4 3 5 6 6 8 7 7 6 7 7 8 9 10 9 11 12 11 10 12 13 14 15 15

GFSSW_850_temp_069.txt.gz
Temp
13 13 13 13 14 14 14 14 15 15 16 16 16 16 17 17 18 18 17 18 18 19 19 19 19 19 19 19 20 20 24 24 25 24 25 22 23 20 21 21 19 19 19 19 18
13 13 13 13 13 13 13 14 14 15 15 15 16 17 17 17 17 17 18 18 18 19 19 19 19 19 21 20 20 22 23 25 25 25 24 23 23 22 21 21 21 19 18 19 16
12 12 13 12 13 13 13 14 14 14 15 15 16 17 17 17 17 17 18 18 18 19 19 19 19 19 21 21 21 22 23 25 23 22 21 22 21 21 21 23 22 22 21 18 17
12 12 13 13 13 13 13 14 14 14 15 15 16 16 17 17 19 17 17 18 18 18 18 18 19 20 22 21 21 22 21 21 20 18 19 21 21 21 20 23 22 22 22 19 17
11 12 12 12 13 13 13 13 14 14 14 15 16 16 17 17 18 18 17 18 18 18 18 18 19 21 21 22 20 21 22 19 18 17 18 18 20 21 21 21 21 20 20 19 17
11 12 12 12 12 12 13 13 13 14 14 15 15 16 16 18 17 17 17 17 17 17 17 18 19 20 21 21 21 20 20 20 19 19 18 18 21 18 22 21 21 20 18 19 18
11 11 12 12 12 12 13 13 14 14 14 15 15 15 16 16 17 16 17 17 17 17 16 18 18 18 19 19 17 18 20 21 20 19 20 18 20 20 21 20 20 20 19 19 19
10 11 11 12 12 12 13 13 13 14 14 15 15 15 16 16 16 16 16 16 17 17 17 17 17 17 18 17 19 20 20 21 21 19 18 18 21 24 21 21 20 20 21 20 19
10 10 10 11 11 12 12 13 14 14 14 14 15 15 17 16 15 16 15 15 16 17 17 17 17 17 17 20 20 20 22 21 22 19 19 19 21 23 19 18 19 21 21 21 20
9 10 10 9 10 11 11 12 13 14 14 14 14 15 15 14 15 15 15 15 15 16 16 17 18 19 20 20 20 22 20 21 21 19 17 19 19 21 21 21 20 20 21 21 20
9 9 9 9 9 10 11 12 12 12 13 15 14 13 14 14 14 14 15 15 15 16 18 17 19 19 20 21 22 20 20 21 22 18 18 20 20 22 22 22 22 22 21 21 21
9 9 9 8 9 9 10 10 11 11 13 13 13 14 14 14 13 14 14 15 16 17 17 16 17 20 20 19 18 19 19 20 21 18 16 19 20 21 21 22 22 22 22 22 22
8 8 8 8 8 9 9 10 10 11 12 12 12 12 13 14 15 14 14 15 16 17 16 18 19 18 17 17 17 19 19 20 20 18 17 17 19 21 23 21 21 21 21 21 21
7 7 8 8 8 8 9 9 10 11 14 14 11 12 13 13 14 13 14 15 15 17 17 18 19 16 16 17 18 18 20 18 18 17 19 18 19 22 23 23 23 22 21 22 22
6 7 7 7 8 8 8 9 9 11 11 15 10 10 10 13 13 11 12 13 17 16 16 18 15 15 16 17 18 18 16 17 17 16 17 18 16 21 23 22 23 23 22 22 21
5 6 7 7 7 7 8 8 9 9 10 12 11 11 11 11 11 9 11 12 13 16 14 16 12 16 17 14 16 15 15 15 16 17 16 19 20 21 23 24 24 23 23 22 21
4 5 6 6 7 8 8 7 7 8 13 12 11 11 12 12 12 12 12 12 15 14 15 15 14 14 13 14 13 15 16 16 16 15 16 18 18 21 21 22 21 22 21 22 19
3 4 5 6 7 7 7 6 8 11 13 11 11 11 11 12 12 12 13 14 14 16 16 15 15 14 13 16 16 14 17 16 15 17 18 12 15 20 22 21 19 19 19 20 18
2 3 4 5 6 6 6 6 8 12 13 11 11 12 12 11 12 12 13 14 15 15 14 16 16 14 14 15 17 14 14 17 15 11 13 17 19 21 20 18 19 20 20 19 18
1 2 3 5 5 5 6 7 9 11 11 12 12 13 13 12 11 12 13 14 14 14 14 16 15 13 11 12 13 14 16 14 14 13 14 17 18 19 20 21 21 20 19 18 17
1 2 3 4 4 5 6 7 10 9 10 11 11 10 11 11 12 12 13 13 14 13 14 14 14 12 11 12 15 13 13 14 15 15 14 15 18 22 21 20 19 19 17 16 16
1 3 3 3 5 6 7 8 9 10 10 10 11 12 12 11 10 11 12 13 12 12 12 13 13 12 14 15 14 15 15 15 14 13 14 14 16 20 19 17 16 17 17 15 15
1 3 2 2 5 7 7 8 9 9 10 10 10 11 12 11 9 11 13 11 11 12 8 9 10 9 11 13 11 11 14 14 15 13 12 12 15 19 18 17 17 15 16 16 16
1 2 2 1 5 7 7 7 7 7 9 10 10 11 10 10 11 10 10 9 7 8 7 8 6 8 12 14 14 11 12 14 13 11 12 13 15 17 18 19 18 16 17 17 16
-0 3 4 2 2 4 7 7 7 7 7 8 8 9 10 8 8 7 7 7 8 8 8 8 6 6 8 10 11 12 12 12 12 13 12 13 14 16 17 18 18 18 18 17 17
-1 0 1 4 4 4 4 5 6 7 7 7 7 9 9 8 9 9 9 9 9 7 9 7 6 7 6 9 9 9 10 11 12 12 12 14 14 17 17 17 17 17 17 16 16
-1 -1 0 3 4 4 3 5 6 6 7 7 7 7 7 8 8 7 4 4 4 4 4 3 4 5 6 8 6 6 8 10 11 12 13 12 14 16 15 15 15 15 15 15 15

GFSSW_850_temp_072.txt.gz
Temp
13 13 13 13 14 14 14 14 15 15 15 16 15 16 17 17 17 18 17 18 18 19 19 19 19 19 19 20 20 21 20 20 23 24 24 22 22 21 22 21 21 21 20 19 18
12 12 13 13 14 14 14 14 14 14 14 15 15 16 16 17 17 17 17 18 18 19 19 19 19 19 20 20 20 20 19 22 22 22 22 22 23 21 21 21 21 20 19 18 18
12 12 12 13 13 13 14 14 14 14 15 15 15 16 16 17 17 17 18 18 18 18 19 18 19 19 20 21 21 22 20 21 22 21 21 22 22 22 21 20 22 22 20 19 18
11 12 12 13 13 13 13 14 14 14 14 15 16 16 16 17 17 17 18 18 18 18 18 18 19 19 20 20 21 20 22 21 20 19 20 21 21 22 21 22 22 23 22 21 19
11 11 12 12 12 13 13 13 13 14 14 15 15 16 16 17 17 17 17 18 18 18 18 18 19 20 20 22 20 19 22 20 19 18 18 19 19 20 21 21 21 22 21 21 20
11 11 11 11 12 12 13 13 13 14 14 15 15 16 16 16 16 17 17 17 18 18 18 18 19 20 20 21 20 20 20 20 19 19 18 18 19 20 21 21 21 21 21 20 20
11 11 11 11 11 12 13 13 13 14 14 15 15 16 16 16 16 16 16 17 17 17 17 17 18 19 20 20 19 19 19 19 19 19 19 18 17 17 20 21 21 21 21 20 19
11 11 11 11 12 12 13 13 13 14 14 14 15 15 16 16 17 16 16 17 17 17 17 18 18 18 18 18 19 18 19 18 20 18 18 18 17 21 21 22 21 20 20 20 19
9 10 10 11 11 12 12 13 13 14 14 14 15 15 16 15 16 16 16 15 16 16 17 17 17 18 17 17 17 18 17 18 18 18 18 16 17 21 21 20 20 20 20 21 21
10 9 9 10 10 11 12 13 13 14 14 14 14 14 15 14 15 15 15 15 15 16 16 17 17 16 16 16 15 18 18 19 20 17 17 16 14 17 20 20 20 20 20 21 21
8 8 9 10 9 10 11 12 12 13 13 14 14 14 13 14 14 14 15 15 15 16 15 17 15 14 17 17 18 19 18 17 19 17 17 16 15 17 21 21 21 22 22 21 21
8 9 9 10 9 9 10 10 11 11 13 14 14 14 14 14 13 13 14 15 15 14 16 15 14 17 18 18 18 19 17 16 18 15 16 15 15 17 18 20 21 21 21 22 22
8 8 8 9 9 9 9 10 11 11 12 13 13 13 14 14 15 14 14 15 15 15 15 15 17 18 17 17 17 17 16 16 17 16 15 14 13 15 17 19 20 20 21 21 21
7 7 8 9 9 9 9 10 11 11 12 13 11 12 13 14 13 14 15 15 15 15 15 15 17 17 16 16 16 15 17 17 17 15 13 17 12 16 18 18 18 21 21 22 22
6 7 7 7 8 8 9 10 10 11 10 13 10 10 11 14 13 12 13 14 14 15 16 15 14 14 15 16 16 16 15 16 17 15 14 15 12 14 16 18 19 21 23 23 22
6 6 6 7 7 8 8 9 9 8 9 12 10 10 11 11 11 10 12 12 14 15 15 14 13 15 16 13 15 14 15 15 15 14 11 14 13 15 16 19 21 22 23 22 22
5 5 6 7 7 7 7 7 7 8 13 11 11 11 12 11 11 11 11 11 12 12 12 13 13 13 14 12 13 14 14 12 11 9 10 15 14 16 19 19 20 20 21 22 20
4 5 6 6 6 7 7 6 7 9 13 12 12 11 12 12 12 12 11 11 12 13 13 13 12 12 12 13 12 11 13 10 10 10 11 12 12 13 18 20 22 21 21 21 19
3 5 5 5 6 7 6 5 8 10 13 11 11 11 11 12 12 11 11 12 13 12 13 14 14 13 12 14 14 12 11 14 12 5 7 12 14 16 16 17 18 20 20 19 19
1 3 4 5 6 6 6 7 8 10 11 12 12 13 12 11 11 11 11 13 13 13 14 14 12 12 10 12 13 13 13 11 10 8 8 11 12 14 16 18 16 16 17 18 17
1 2 3 5 5 5 6 7 9 9 10 10 12 11 11 12 11 11 13 12 13 12 13 13 12 10 11 10 12 11 11 12 12 10 8 10 13 18 15 15 15 15 16 16 16
1 3 3 3 4 6 6 8 9 10 10 10 10 11 11 10 11 11 12 12 12 12 11 12 11 8 11 13 11 13 13 13 10 10 8 10 13 17 14 15 17 16 16 16 17
1 2 3 3 4 5 7 8 8 9 10 10 10 10 12 10 8 10 10 8 10 8 7 9 9 6 8 11 10 10 12 12 13 10 10 10 12 14 14 16 17 17 18 17 17
1 2 2 1 4 5 6 6 7 8 8 10 10 10 10 9 10 10 9 8 7 7 8 9 7 7 8 11 10 9 9 11 11 9 11 11 12 14 14 13 15 17 17 17 17
-0 2 3 1 2 3 5 7 6 7 7 8 8 9 9 8 9 9 9 7 7 8 8 6 6 6 7 7 8 8 7 8 8 9 10 11 11 13 14 13 14 15 16 16 16
-1 1 3 3 4 3 3 4 5 7 7 6 7 8 8 8 9 8 9 7 8 5 8 5 4 6 4 6 7 7 8 8 9 10 9 10 11 13 14 14 14 15 15 15 14
-1 -1 -0 2 3 3 2 3 5 6 7 8 7 6 6 7 7 5 5 5 5 4 3 3 4 5 5 5 5 5 6 8 8 9 10 9 11 12 12 12 13 13 13 13 13

GFSSW_850_temp_075.txt.gz
Temp
12 12 13 13 13 14 14 14 14 15 15 15 15 16 17 17 17 18 17 18 18 18 18 19 19 19 19 20 20 21 15 17 20 21 19 21 20 21 21 21 21 20 20 20 18
11 12 12 13 13 13 14 14 14 15 15 15 16 16 17 17 17 18 18 18 18 18 18 19 19 19 20 20 20 18 14 19 20 20 19 21 21 21 21 20 20 20 19 19 18
11 11 12 13 13 13 13 14 14 14 15 15 16 16 17 17 17 17 18 18 18 18 19 19 18 19 19 20 20 19 16 20 19 20 21 20 21 21 20 18 20 21 19 18 18
11 11 11 12 13 13 13 13 14 14 15 15 16 16 17 17 16 17 17 18 18 18 18 19 19 19 19 18 20 19 20 20 19 20 20 20 20 20 20 21 21 21 21 19 18
10 11 11 11 12 12 13 13 14 14 15 15 15 16 16 16 17 17 17 17 18 18 18 18 19 19 18 19 20 18 19 20 19 19 19 19 19 19 20 21 21 21 21 21 20
10 10 11 11 12 13 12 13 13 14 15 15 15 16 16 15 17 17 17 17 18 17 18 18 18 19 20 19 18 18 19 19 18 18 18 18 17 18 20 21 21 20 21 21 20
9 10 10 11 11 12 12 13 13 14 14 15 15 15 16 16 16 16 17 17 17 17 17 18 18 19 19 18 18 18 18 17 18 18 17 17 16 16 21 21 21 20 20 20 20
9 10 10 11 11 12 12 13 13 13 14 14 15 15 16 16 16 16 16 17 17 17 17 17 18 19 18 18 18 17 17 16 17 16 17 17 15 17 20 20 20 20 21 20 20
9 9 10 11 11 12 12 13 13 13 14 14 14 15 15 15 15 16 16 16 16 16 17 17 17 18 17 14 13 15 14 15 17 17 15 16 15 17 19 19 19 19 20 20 20
8 8 9 10 11 11 12 12 13 13 13 14 14 14 14 14 15 15 15 16 16 16 16 17 17 12 11 12 12 14 15 16 17 16 15 14 13 13 20 18 19 20 20 21 20
8 8 9 9 9 10 11 11 12 12 13 14 14 14 13 14 14 14 14 15 15 16 13 16 12 12 13 13 15 17 17 16 16 16 15 13 12 13 17 18 18 20 20 21 21
8 8 9 9 9 9 10 11 11 11 12 13 14 14 14 14 13 14 14 15 15 13 14 12 12 13 14 15 16 16 16 15 16 15 15 14 13 13 14 17 19 19 19 21 21
7 8 8 9 9 9 10 10 11 11 11 12 13 13 14 14 14 14 14 14 14 12 12 12 15 14 16 16 16 16 15 15 15 15 14 13 11 13 15 16 19 19 20 20 21
7 7 8 8 9 9 10 10 10 11 10 11 11 12 13 14 14 14 14 15 14 12 12 13 14 15 15 15 15 15 15 15 15 14 13 14 10 12 16 16 16 20 22 22 22
7 7 7 7 8 9 10 10 10 11 7 11 10 10 12 13 13 12 13 14 12 13 13 13 13 13 14 14 14 13 15 15 15 13 13 12 10 11 12 15 15 18 21 21 22
5 6 7 7 7 8 9 10 9 8 7 10 9 9 10 11 10 10 12 13 14 14 13 13 13 14 13 12 14 12 13 12 11 10 10 11 12 11 14 16 18 19 20 21 21
5 6 6 7 7 8 8 8 8 8 12 9 9 9 10 10 10 10 9 10 10 11 11 13 13 12 13 11 12 13 12 10 10 8 9 11 11 13 14 16 18 20 20 20 19
4 5 6 6 6 7 7 6 7 8 10 11 10 9 9 10 10 10 9 9 10 12 9 10 11 11 12 12 11 11 11 9 9 9 10 10 11 14 14 19 19 19 20 18 18
4 5 5 6 6 6 6 5 7 7 10 10 10 9 10 10 9 10 8 9 10 10 12 10 11 11 10 12 13 11 11 11 10 1 6 10 11 14 13 15 17 17 17 17 17
3 4 5 5 5 6 6 5 7 9 9 11 10 10 8 9 9 9 9 10 11 11 12 13 12 9 10 13 12 12 11 10 7 8 7 9 10 12 13 14 13 13 16 16 17
2 3 3 5 5 5 6 6 7 9 9 9 9 10 10 9 9 9 10 10 11 11 11 11 11 9 11 10 10 10 11 11 10 8 7 8 11 11 13 13 14 15 16 17 17
1 1 3 3 4 5 5 7 8 9 9 8 9 9 9 10 10 9 10 8 9 11 10 10 9 6 9 11 11 11 11 10 8 9 7 7 13 12 11 14 15 15 16 17 17
1 2 2 3 2 2 5 6 7 8 8 8 9 10 9 9 8 9 7 7 8 7 8 9 7 3 7 9 9 11 11 11 11 7 9 6 12 13 12 11 14 14 14 14 15
1 -0 2 2 3 3 4 5 6 8 8 9 9 9 9 8 8 9 7 7 8 7 8 9 7 6 7 8 8 7 6 8 9 5 8 9 11 13 11 10 12 14 14 14 15
-1 -0 2 0 -0 2 2 5 5 5 7 8 7 8 8 7 8 8 6 6 7 7 6 7 6 6 6 7 7 6 6 7 8 7 8 10 9 11 11 11 12 13 13 13 13
-1 -1 1 1 2 1 1 2 4 5 5 6 6 7 7 7 7 6 7 6 6 5 6 5 3 5 4 6 6 6 6 6 7 8 9 9 9 11 11 11 11 12 12 11 11
-1 -1 -1 0 1 0 1 2 4 5 6 7 6 6 6 6 7 5 6 6 5 3 4 4 4 3 1 4 5 3 5 6 6 7 8 8 9 10 9 8 7 8 7 7 7